Time,TemperatureF,DewpointF,PressureIn,WindDirection,WindDirectionDegrees,WindSpeedMPH,WindSpeedGustMPH,Humidity,HourlyPrecipIn,Conditions,Clouds,dailyrainin,SoftwareType,DateUTC
2013-09-23 00:11:00,63.0,40.0,29.69,ESE,111,0.0,-999.0,42,-99.99,,,-99.99,,2013-09-23 07:11:00,
2013-09-23 00:21:00,63.0,40.0,29.69,ESE,111,0.0,-999.0,43,-99.99,,,-99.99,,2013-09-23 07:21:00,
2013-09-23 00:52:00,63.0,39.0,29.69,ESE,111,0.0,-999.0,41,-99.99,,,-99.99,,2013-09-23 07:52:00,
2013-09-23 01:11:00,63.0,40.0,29.69,ESE,111,0.0,-999.0,43,-99.99,,,-99.99,,2013-09-23 08:11:00,
2013-09-23 01:22:00,62.0,39.0,29.69,ESE,111,0.0,-999.0,43,-99.99,,,-99.99,,2013-09-23 08:22:00,
2013-09-23 01:52:00,62.0,39.0,29.69,ESE,111,0.0,-999.0,42,-99.99,,,-99.99,,2013-09-23 08:52:00,
2013-09-23 02:11:00,67.0,40.0,29.69,ENE,59,0.0,-999.0,37,-99.99,,,-99.99,,2013-09-23 09:11:00,
2013-09-23 02:21:00,65.0,43.0,29.70,ENE,59,0.0,-999.0,44,-99.99,,,-99.99,,2013-09-23 09:21:00,
2013-09-23 02:53:00,61.0,40.0,29.69,ENE,59,0.0,-999.0,45,-99.99,,,-99.99,,2013-09-23 09:53:00,
2013-09-23 03:23:00,60.0,39.0,29.68,ENE,59,0.0,-999.0,45,-99.99,,,-99.99,,2013-09-23 10:23:00,
2013-09-23 03:52:00,59.0,38.0,29.68,ENE,59,0.0,-999.0,45,-99.99,,,-99.99,,2013-09-23 10:52:00,
2013-09-23 04:12:00,59.0,38.0,29.68,ENE,59,0.0,-999.0,45,-99.99,,,-99.99,,2013-09-23 11:12:00,
2013-09-23 04:21:00,59.0,39.0,29.68,ENE,59,0.0,-999.0,47,-99.99,,,-99.99,,2013-09-23 11:21:00,
2013-09-23 04:52:00,59.0,39.0,29.68,ENE,59,0.0,-999.0,48,-99.99,,,-99.99,,2013-09-23 11:52:00,
2013-09-23 05:11:00,58.0,38.0,29.68,ENE,59,0.0,-999.0,48,-99.99,,,-99.99,,2013-09-23 12:11:00,
2013-09-23 05:22:00,58.0,39.0,29.68,ENE,59,0.0,-999.0,49,-99.99,,,-99.99,,2013-09-23 12:22:00,
2013-09-23 05:52:00,58.0,39.0,29.68,ENE,59,0.0,-999.0,49,-99.99,,,-99.99,,2013-09-23 12:52:00,
2013-09-23 06:11:00,58.0,39.0,29.69,ENE,59,0.0,-999.0,49,-99.99,,,-99.99,,2013-09-23 13:11:00,
2013-09-23 06:21:00,59.0,40.0,29.69,ENE,59,0.0,-999.0,49,-99.99,,,-99.99,,2013-09-23 13:21:00,
2013-09-23 06:42:00,59.0,39.0,29.69,ENE,59,0.0,-999.0,48,-99.99,,,-99.99,,2013-09-23 13:42:00,
2013-09-23 06:52:00,60.0,40.0,29.70,ENE,59,0.0,-999.0,47,-99.99,,,-99.99,,2013-09-23 13:52:00,
2013-09-23 07:11:00,60.0,39.0,29.70,ENE,59,0.0,-999.0,46,-99.99,,,-99.99,,2013-09-23 14:11:00,
2013-09-23 07:21:00,61.0,40.0,29.71,ENE,59,0.0,-999.0,46,-99.99,,,-99.99,,2013-09-23 14:21:00,
2013-09-23 07:42:00,60.0,39.0,29.71,ENE,59,0.0,-999.0,46,-99.99,,,-99.99,,2013-09-23 14:42:00,
2013-09-23 07:52:00,60.0,40.0,29.71,ENE,59,0.0,-999.0,47,-99.99,,,-99.99,,2013-09-23 14:52:00,
2013-09-23 08:11:00,61.0,41.0,29.72,ENE,59,0.0,-999.0,48,-99.99,,,-99.99,,2013-09-23 15:11:00,
2013-09-23 08:21:00,62.0,42.0,29.72,ENE,59,0.0,-999.0,48,-99.99,,,-99.99,,2013-09-23 15:21:00,
2013-09-23 08:43:00,63.0,42.0,29.72,ENE,59,0.0,-999.0,47,-99.99,,,-99.99,,2013-09-23 15:43:00,
2013-09-23 08:54:00,64.0,44.0,29.72,ENE,59,0.0,-999.0,49,-99.99,,,-99.99,,2013-09-23 15:54:00,
2013-09-23 09:12:00,66.0,46.0,29.73,ENE,59,0.0,-999.0,49,-99.99,,,-99.99,,2013-09-23 16:12:00,
2013-09-23 09:23:00,69.0,45.0,29.73,ENE,59,0.0,-999.0,42,-99.99,,,-99.99,,2013-09-23 16:23:00,
2013-09-23 09:53:00,75.0,46.0,29.73,ESE,109,0.0,-999.0,36,-99.99,,,-99.99,,2013-09-23 16:53:00,
2013-09-23 10:12:00,79.0,47.0,29.73,NNW,341,0.0,-999.0,33,-99.99,,,-99.99,,2013-09-23 17:12:00,
2013-09-23 10:24:00,82.0,47.0,29.73,West,267,0.0,-999.0,29,-99.99,,,-99.99,,2013-09-23 17:24:00,
2013-09-23 10:42:00,85.0,47.0,29.73,WNW,297,1.0,-999.0,27,-99.99,,,-99.99,,2013-09-23 17:42:00,
2013-09-23 10:52:00,87.0,48.0,29.73,WSW,254,1.0,-999.0,26,-99.99,,,-99.99,,2013-09-23 17:52:00,
2013-09-23 11:12:00,88.0,47.0,29.72,WNW,298,1.0,-999.0,24,-99.99,,,-99.99,,2013-09-23 18:12:00,
2013-09-23 11:21:00,90.0,47.0,29.72,WNW,300,0.0,-999.0,23,-99.99,,,-99.99,,2013-09-23 18:21:00,
2013-09-23 11:52:00,92.0,46.0,29.72,NW,326,1.0,-999.0,21,-99.99,,,-99.99,,2013-09-23 18:52:00,
2013-09-23 12:12:00,94.0,45.0,29.71,WNW,292,1.0,-999.0,19,-99.99,,,-99.99,,2013-09-23 19:12:00,
2013-09-23 13:21:00,97.0,46.0,29.69,North,351,1.0,-999.0,18,-99.99,,,-99.99,,2013-09-23 20:21:00,
2013-09-23 13:52:00,98.0,46.0,29.69,WNW,290,1.0,-999.0,17,-99.99,,,-99.99,,2013-09-23 20:52:00,
2013-09-23 14:11:00,98.0,46.0,29.68,ENE,61,0.0,-999.0,17,-99.99,,,-99.99,,2013-09-23 21:11:00,
2013-09-23 14:23:00,95.0,52.0,29.69,ESE,113,1.0,-999.0,24,-99.99,,,-99.99,,2013-09-23 21:23:00,
2013-09-23 14:44:00,93.0,52.0,29.69,SE,126,1.0,-999.0,25,-99.99,,,-99.99,,2013-09-23 21:44:00,
2013-09-23 14:54:00,92.0,50.0,29.69,SE,128,1.0,-999.0,24,-99.99,,,-99.99,,2013-09-23 21:54:00,
2013-09-23 15:13:00,93.0,52.0,29.69,NNE,30,0.0,-999.0,25,-99.99,,,-99.99,,2013-09-23 22:13:00,
2013-09-23 15:23:00,94.0,49.0,29.68,NE,42,0.0,-999.0,22,-99.99,,,-99.99,,2013-09-23 22:23:00,
2013-09-23 15:54:00,94.0,47.0,29.69,ESE,114,0.0,-999.0,20,-99.99,,,-99.99,,2013-09-23 22:54:00,
2013-09-23 16:12:00,93.0,47.0,29.68,ESE,119,1.0,-999.0,21,-99.99,,,-99.99,,2013-09-23 23:12:00,
2013-09-23 16:22:00,93.0,47.0,29.68,ESE,121,1.0,-999.0,21,-99.99,,,-99.99,,2013-09-23 23:22:00,
2013-09-23 16:53:00,91.0,44.0,29.68,SE,131,1.0,-999.0,20,-99.99,,,-99.99,,2013-09-23 23:53:00,
2013-09-23 17:11:00,90.0,43.0,29.68,ESE,116,1.0,-999.0,20,-99.99,,,-99.99,,2013-09-24 00:11:00,
2013-09-23 17:22:00,90.0,45.0,29.68,ENE,68,1.0,-999.0,21,-99.99,,,-99.99,,2013-09-24 00:22:00,
2013-09-23 17:42:00,90.0,46.0,29.68,SE,140,1.0,-999.0,22,-99.99,,,-99.99,,2013-09-24 00:42:00,
2013-09-23 17:52:00,89.0,44.0,29.68,North,11,0.0,-999.0,21,-99.99,,,-99.99,,2013-09-24 00:52:00,
2013-09-23 18:12:00,89.0,43.0,29.68,ESE,118,0.0,-999.0,20,-99.99,,,-99.99,,2013-09-24 01:12:00,
2013-09-23 18:21:00,89.0,44.0,29.68,East,89,0.0,-999.0,21,-99.99,,,-99.99,,2013-09-24 01:21:00,
2013-09-23 18:43:00,88.0,44.0,29.68,ESE,116,0.0,-999.0,22,-99.99,,,-99.99,,2013-09-24 01:43:00,
2013-09-23 18:52:00,88.0,46.0,29.69,ESE,116,0.0,-999.0,23,-99.99,,,-99.99,,2013-09-24 01:52:00,
2013-09-23 19:12:00,86.0,48.0,29.70,ESE,116,0.0,-999.0,27,-99.99,,,-99.99,,2013-09-24 02:12:00,
2013-09-23 19:22:00,84.0,47.0,29.70,ESE,116,0.0,-999.0,28,-99.99,,,-99.99,,2013-09-24 02:22:00,
2013-09-23 19:42:00,82.0,46.0,29.70,ESE,116,0.0,-999.0,28,-99.99,,,-99.99,,2013-09-24 02:42:00,
2013-09-23 19:52:00,79.0,44.0,29.70,ESE,116,0.0,-999.0,29,-99.99,,,-99.99,,2013-09-24 02:52:00,
2013-09-23 20:12:00,77.0,43.0,29.71,ESE,116,0.0,-999.0,30,-99.99,,,-99.99,,2013-09-24 03:12:00,
2013-09-23 20:22:00,75.0,43.0,29.71,ESE,116,0.0,-999.0,32,-99.99,,,-99.99,,2013-09-24 03:22:00,
2013-09-23 20:54:00,73.0,43.0,29.72,ESE,116,0.0,-999.0,34,-99.99,,,-99.99,,2013-09-24 03:54:00,
2013-09-23 21:14:00,71.0,42.0,29.73,ESE,116,0.0,-999.0,35,-99.99,,,-99.99,,2013-09-24 04:14:00,
2013-09-23 21:23:00,70.0,41.0,29.73,ESE,116,0.0,-999.0,35,-99.99,,,-99.99,,2013-09-24 04:23:00,
2013-09-23 21:54:00,69.0,42.0,29.74,ESE,116,0.0,-999.0,38,-99.99,,,-99.99,,2013-09-24 04:54:00,
2013-09-23 22:13:00,68.0,41.0,29.74,ESE,116,0.0,-999.0,38,-99.99,,,-99.99,,2013-09-24 05:13:00,
2013-09-23 22:22:00,67.0,41.0,29.74,ESE,116,0.0,-999.0,39,-99.99,,,-99.99,,2013-09-24 05:22:00,
2013-09-23 22:53:00,65.0,39.0,29.74,ESE,116,0.0,-999.0,39,-99.99,,,-99.99,,2013-09-24 05:53:00,
2013-09-23 23:12:00,65.0,41.0,29.74,ESE,116,0.0,-999.0,41,-99.99,,,-99.99,,2013-09-24 06:12:00,
2013-09-23 23:22:00,65.0,42.0,29.74,ESE,116,0.0,-999.0,43,-99.99,,,-99.99,,2013-09-24 06:22:00,
2013-09-23 23:42:00,65.0,41.0,29.73,ESE,116,0.0,-999.0,42,-99.99,,,-99.99,,2013-09-24 06:42:00,
2013-09-23 23:52:00,64.0,39.0,29.73,ESE,116,0.0,-999.0,39,-99.99,,,-99.99,,2013-09-24 06:52:00,